Wind_Speed
21 21 22 21 22 23 23 23 24 24 23 22 22 23 25 25 24 30 32 29 28 24 25 21 24 23 24 22 22 21 26 29 25 22 22 14 12 9 12 12 12 14 14 19 19
24 26 27 26 24 25 24 23 22 23 24 24 25 25 28 28 29 24 31 30 30 26 25 22 22 21 24 23 23 27 32 28 22 22 17 11 9 10 13 15 11 11 16 20 19
26 24 24 26 25 24 22 21 21 22 22 24 25 26 27 28 33 19 26 26 26 26 24 22 20 18 22 21 23 27 36 26 24 23 17 15 14 11 13 15 13 14 12 17 26
26 24 23 23 23 22 22 21 21 21 23 23 25 25 24 25 11 15 18 20 22 24 23 24 23 23 25 26 25 29 30 27 25 22 17 20 16 15 15 14 14 20 23 21 22
24 24 24 24 22 23 22 22 21 20 22 23 25 24 22 26 21 22 23 17 15 17 19 23 21 21 27 24 24 30 27 27 26 23 22 19 20 18 17 15 15 19 20 16 15
24 25 24 24 23 22 21 20 19 19 20 22 23 23 25 26 17 13 25 21 20 14 13 22 15 17 24 24 27 24 26 27 26 27 21 24 22 19 19 15 15 18 17 15 13
24 24 24 24 23 22 20 20 19 18 18 20 22 24 26 18 20 17 18 22 24 24 18 25 18 18 19 24 22 26 28 26 27 24 25 21 26 25 21 19 19 18 17 14 14
24 22 23 23 21 21 20 21 20 19 18 20 21 23 27 21 15 13 18 17 24 23 29 24 27 21 20 20 19 25 23 29 28 26 24 24 32 21 17 20 19 14 16 16 15
25 23 23 22 22 20 21 22 22 21 19 18 21 20 20 7 8 12 11 14 22 28 30 30 24 21 16 19 19 20 28 26 25 24 25 25 30 19 15 17 16 15 16 17 21
24 23 23 23 24 21 21 22 22 21 15 19 12 18 12 4 14 13 12 12 19 28 30 35 19 26 21 22 27 22 24 24 24 22 22 27 23 20 16 19 16 16 15 18 19
25 24 22 22 23 23 21 19 17 22 22 22 18 26 19 19 17 11 13 10 15 21 21 36 20 29 27 25 25 28 26 26 22 17 19 23 21 19 21 21 19 15 16 16 17
25 24 23 22 21 20 20 18 19 20 22 19 13 17 16 14 26 14 12 11 12 13 28 24 33 24 22 21 24 26 27 28 25 16 12 14 19 19 19 21 19 18 17 14 18
27 25 23 21 21 20 17 14 16 19 24 8 10 7 8 12 14 19 17 13 11 11 13 26 14 21 21 24 27 29 32 28 27 20 17 12 21 24 21 21 20 20 17 15 18
28 26 23 19 22 16 14 12 11 18 13 3 3 6 9 10 9 8 16 13 9 13 14 23 31 19 18 29 26 32 26 26 26 23 25 18 18 19 19 20 22 22 18 17 16
29 26 23 22 19 16 13 8 6 10 5 6 7 7 6 6 10 6 15 19 18 14 11 8 13 22 29 22 27 30 23 22 21 24 25 26 20 18 13 17 25 24 23 19 20
31 27 22 22 20 17 14 3 4 3 7 5 4 1 4 10 12 7 5 17 19 16 18 20 15 16 19 26 28 21 23 21 19 22 20 26 25 20 22 16 15 14 12 18 19
32 29 25 23 17 16 8 6 3 8 1 6 4 5 6 9 9 10 6 8 14 12 20 22 23 19 18 19 29 23 17 14 10 14 11 22 21 24 20 9 2 7 9 10 17
32 28 25 24 19 16 12 10 12 8 9 3 7 7 8 7 7 6 7 9 13 16 13 8 16 23 20 21 22 30 22 13 8 7 15 28 14 26 18 13 11 11 9 8 13
32 29 28 23 21 17 17 17 10 13 11 9 9 11 11 8 6 8 10 8 8 15 13 5 11 12 17 18 20 27 29 27 26 11 7 14 26 17 11 11 6 5 11 12 8
30 32 30 20 21 19 22 28 18 14 12 7 9 6 8 5 7 5 4 2 1 6 16 8 9 9 18 17 20 23 21 19 14 5 6 8 10 17 15 11 11 7 9 7 5
22 26 20 17 15 21 32 27 16 18 10 14 10 12 10 11 8 9 5 4 1 2 12 19 19 10 18 21 21 23 26 19 17 22 5 2 6 3 11 17 14 9 14 9 7
15 21 12 12 17 26 35 24 21 15 13 19 14 12 12 11 11 14 13 3 5 10 4 12 12 20 22 20 20 29 24 25 17 12 27 14 2 8 12 8 16 11 10 6 7
20 21 18 17 24 25 22 23 24 22 23 18 19 15 16 15 16 15 16 15 8 8 4 1 10 17 13 16 21 25 28 23 27 23 10 7 7 11 12 4 3 12 10 6 3
20 17 16 25 26 22 21 24 22 22 26 20 20 15 16 16 16 17 12 7 5 9 14 11 12 13 14 8 3 14 27 22 27 16 11 13 9 11 8 3 4 2 4 6 5
28 31 17 14 24 26 25 18 21 20 20 17 21 22 19 18 19 19 19 21 19 13 10 11 9 12 19 17 16 17 23 21 22 24 16 19 19 17 11 3 8 7 5 7 7
31 33 20 26 17 19 26 27 24 20 20 19 22 20 19 23 20 19 18 17 16 10 8 8 9 10 12 9 8 11 10 21 18 21 11 12 15 7 10 15 9 7 10 11 10
30 33 22 24 25 23 22 26 26 22 20 22 19 20 20 19 21 20 16 17 17 12 9 8 4 10 5 6 9 12 15 15 13 11 10 14 10 7 4 3 4 6 12 9 16
Wind_Direction
295 292 294 296 294 297 300 297 296 296 303 310 312 316 318 324 303 268 267 264 266 253 257 250 239 236 233 231 222 234 244 249 254 259 269 239 235 239 263 234 265 280 273 260 296
289 293 297 297 295 295 296 293 296 297 302 305 305 311 315 317 331 292 262 262 258 253 244 248 240 232 229 231 228 229 236 245 250 256 282 257 242 260 238 253 266 269 273 273 295
290 290 294 295 294 296 296 300 300 301 306 309 311 310 311 319 332 306 268 262 259 256 247 238 231 228 234 234 234 231 238 244 251 274 268 271 253 248 255 254 262 245 241 285 300
292 292 291 290 291 294 296 297 298 307 309 309 308 308 310 313 341 282 250 254 259 252 239 227 219 221 231 236 237 241 242 249 261 263 278 255 252 251 254 257 260 268 273 278 291
291 291 291 289 291 293 294 297 305 309 313 312 309 308 305 299 317 241 251 246 249 253 232 221 212 224 231 240 242 241 246 249 253 261 261 255 248 249 253 251 263 268 272 278 287
290 291 291 292 294 294 297 301 310 318 317 312 309 309 302 299 290 306 259 248 249 264 221 210 225 230 241 242 242 245 250 252 253 253 258 250 253 252 256 255 253 260 270 280 284
288 290 293 296 296 297 301 306 315 321 320 315 314 309 295 314 283 292 281 247 241 247 244 206 194 223 241 246 243 253 262 253 248 250 251 251 252 250 260 262 245 252 259 266 282
288 290 292 293 293 298 303 308 316 321 327 323 310 303 297 296 285 272 264 257 239 245 235 232 191 213 227 242 242 244 253 253 244 249 249 240 253 255 259 261 228 241 251 259 270
291 292 290 291 291 298 303 311 316 323 331 320 309 303 307 309 293 276 274 264 242 234 232 229 209 217 237 237 251 236 246 246 250 244 245 231 248 252 261 224 221 241 246 251 272
289 292 293 295 296 303 308 314 315 314 324 311 312 316 304 254 259 272 263 281 251 237 226 215 231 224 233 220 227 230 232 240 252 245 236 230 239 247 256 229 245 244 241 241 252
288 289 289 292 296 303 308 307 311 322 339 315 287 288 262 265 281 256 261 266 259 235 224 218 236 219 225 229 230 247 259 266 253 252 245 227 243 250 249 240 241 250 244 234 245
287 288 290 291 294 297 307 324 328 316 315 301 289 280 297 280 254 232 233 237 268 281 202 207 232 230 228 233 238 251 258 262 261 256 241 251 249 260 251 243 240 240 243 238 233
281 283 286 290 292 295 305 318 326 332 323 319 308 298 311 311 287 230 218 241 241 270 255 220 222 228 234 236 237 243 247 252 259 265 270 241 262 259 251 243 240 234 238 242 227
278 280 281 282 283 294 298 309 334 338 320 282 268 293 307 340 344 226 202 213 231 255 258 231 226 227 233 235 233 243 239 243 251 257 259 244 261 274 245 237 234 235 234 230 228
273 274 276 278 274 281 279 295 332 342 299 186 223 268 300 340 320 268 214 200 218 225 249 246 220 217 235 233 233 243 244 241 248 251 258 259 267 263 270 246 230 222 240 229 226
271 270 268 266 266 263 274 272 322 318 247 193 217 314 283 289 283 260 270 220 224 232 258 258 254 234 250 238 239 246 242 245 249 255 245 248 255 264 255 248 244 219 227 241 227
265 267 267 263 267 269 247 199 247 230 176 184 211 271 295 281 267 232 233 221 208 214 237 257 251 253 244 244 232 235 237 228 232 239 245 244 246 240 249 277 169 180 202 224 206
265 262 261 259 255 243 213 199 231 255 244 256 292 280 289 288 231 236 231 229 240 223 253 263 247 240 235 233 222 222 241 224 201 233 242 234 234 238 240 247 231 223 219 205 182
265 261 255 253 247 230 204 217 222 238 268 256 273 275 264 238 261 256 234 249 226 242 208 230 248 249 240 227 213 215 239 228 251 271 295 269 226 237 203 196 184 203 194 207 225
262 262 260 256 246 223 209 227 234 252 264 271 266 265 267 243 273 258 180 264 137 219 228 248 273 266 230 217 224 217 217 251 248 230 236 264 195 208 214 187 199 170 182 189 196
260 265 272 258 239 213 221 228 236 224 250 251 255 257 256 265 264 274 278 213 66 278 211 234 240 270 237 212 221 217 228 229 247 234 236 240 252 310 99 145 150 125 119 144 150
244 258 245 226 224 226 228 233 236 244 251 246 253 251 253 256 260 266 259 334 305 292 295 219 253 239 245 236 230 228 243 230 232 225 238 253 240 175 190 154 162 147 110 100 105
242 257 215 219 223 230 242 250 242 244 248 247 249 249 245 251 262 266 260 260 301 314 297 321 231 249 256 237 233 222 234 240 233 250 224 255 229 189 142 113 159 165 159 148 183
225 247 251 231 233 231 239 242 245 245 245 242 244 246 247 248 249 255 260 260 282 310 300 279 243 246 257 244 273 245 225 227 229 233 221 226 176 199 210 164 128 52 252 207 135
221 237 235 235 237 242 236 250 238 240 238 237 242 237 240 253 252 253 257 263 268 277 294 292 269 275 265 276 255 247 238 235 218 234 235 230 245 236 278 151 258 249 278 336 297
226 234 239 250 252 241 236 242 243 259 228 230 234 238 237 245 252 260 266 255 251 224 249 299 277 312 277 270 255 253 240 241 219 213 232 236 239 261 254 263 223 217 248 285 308
229 229 236 234 239 249 256 235 242 244 253 234 232 234 238 243 248 242 256 262 244 231 260 285 302 316 261 296 278 255 235 226 230 228 229 247 250 183 187 241 253 262 275 288 276
Height
3101 3100 3097 3095 3094 3093 3091 3091 3090 3089 3087 3085 3084 3083 3081 3077 3077 3078 3076 3077 3079 3081 3081 3084 3086 3090 3093 3094 3098 3103 3103 3098 3099 3099 3097 3093 3095 3097 3099 3099 3099 3098 3098 3096 3096
3096 3095 3095 3093 3090 3090 3088 3086 3084 3083 3082 3080 3079 3077 3075 3072 3070 3069 3070 3071 3071 3074 3076 3080 3082 3086 3087 3091 3094 3098 3096 3094 3096 3094 3095 3094 3092 3094 3097 3096 3095 3096 3095 3091 3091
3091 3089 3088 3089 3087 3086 3084 3081 3080 3078 3076 3074 3073 3073 3070 3066 3063 3061 3062 3064 3067 3069 3072 3074 3078 3082 3086 3089 3092 3092 3089 3092 3091 3093 3092 3092 3091 3092 3093 3093 3094 3092 3093 3088 3088
3088 3085 3084 3082 3083 3081 3080 3077 3075 3072 3071 3069 3067 3067 3065 3063 3069 3061 3060 3061 3063 3064 3066 3070 3072 3078 3082 3085 3088 3089 3088 3089 3089 3089 3090 3089 3089 3089 3090 3091 3091 3087 3087 3088 3085
3083 3082 3082 3080 3079 3077 3074 3072 3069 3067 3064 3063 3062 3060 3060 3059 3058 3058 3056 3058 3058 3060 3062 3066 3068 3074 3077 3081 3084 3083 3084 3085 3086 3086 3085 3086 3085 3085 3085 3087 3087 3083 3083 3083 3082
3079 3079 3077 3077 3076 3073 3070 3067 3064 3062 3060 3058 3055 3054 3053 3053 3053 3052 3049 3054 3055 3058 3058 3061 3066 3072 3075 3076 3079 3080 3081 3080 3081 3081 3081 3082 3081 3081 3081 3083 3083 3079 3079 3079 3079
3073 3073 3072 3071 3071 3070 3068 3064 3061 3059 3056 3052 3050 3047 3050 3051 3045 3045 3047 3048 3049 3052 3055 3056 3061 3067 3072 3072 3075 3075 3075 3074 3075 3076 3075 3078 3075 3075 3077 3077 3078 3077 3076 3076 3075
3067 3066 3066 3066 3065 3065 3062 3060 3057 3055 3051 3046 3047 3044 3042 3041 3040 3040 3040 3042 3044 3047 3050 3055 3054 3057 3061 3066 3066 3069 3071 3069 3069 3071 3071 3073 3067 3071 3072 3072 3073 3074 3074 3073 3072
3064 3063 3062 3060 3060 3059 3057 3054 3052 3049 3045 3043 3044 3041 3037 3036 3036 3036 3037 3038 3038 3041 3043 3049 3051 3053 3058 3061 3063 3062 3063 3063 3064 3064 3064 3065 3063 3067 3068 3067 3069 3072 3072 3070 3068
3058 3058 3058 3056 3055 3054 3052 3048 3046 3044 3042 3040 3038 3039 3036 3035 3033 3033 3033 3033 3033 3036 3039 3043 3046 3049 3053 3057 3055 3058 3058 3059 3058 3057 3057 3058 3059 3062 3063 3062 3064 3067 3068 3067 3065
3053 3053 3051 3051 3050 3049 3047 3046 3043 3038 3035 3034 3035 3030 3030 3031 3031 3031 3029 3029 3029 3031 3033 3039 3043 3039 3047 3052 3054 3055 3055 3053 3052 3053 3053 3053 3056 3057 3059 3060 3061 3060 3063 3065 3063
3047 3047 3048 3047 3046 3043 3042 3040 3037 3036 3031 3028 3027 3024 3024 3023 3022 3026 3027 3028 3027 3026 3028 3034 3033 3042 3046 3049 3051 3052 3052 3050 3051 3050 3051 3051 3051 3053 3054 3054 3056 3058 3057 3059 3061
3042 3042 3043 3042 3042 3040 3039 3038 3035 3032 3027 3023 3022 3021 3023 3022 3018 3020 3023 3024 3027 3027 3027 3028 3034 3042 3042 3044 3047 3048 3049 3048 3049 3048 3048 3048 3048 3047 3048 3049 3051 3052 3054 3055 3056
3037 3037 3038 3037 3039 3037 3035 3035 3033 3030 3025 3022 3020 3019 3020 3019 3017 3016 3019 3024 3026 3026 3026 3026 3029 3033 3035 3037 3043 3042 3045 3046 3047 3047 3044 3045 3041 3039 3040 3042 3044 3047 3049 3051 3054
3031 3031 3032 3032 3033 3033 3034 3032 3032 3030 3029 3022 3021 3019 3018 3021 3020 3017 3017 3018 3021 3023 3025 3024 3026 3028 3033 3034 3038 3038 3041 3042 3043 3043 3043 3042 3041 3037 3035 3035 3036 3039 3041 3044 3047
3025 3026 3026 3026 3027 3029 3030 3030 3031 3034 3024 3018 3019 3018 3019 3020 3018 3017 3015 3016 3020 3022 3021 3021 3024 3025 3028 3031 3031 3035 3037 3039 3040 3039 3035 3038 3039 3034 3033 3032 3033 3035 3038 3039 3041
3017 3020 3021 3021 3024 3023 3025 3028 3032 3027 3017 3017 3017 3016 3017 3018 3018 3015 3014 3013 3015 3018 3020 3020 3020 3022 3025 3026 3028 3029 3032 3034 3036 3033 3029 3033 3032 3030 3027 3029 3030 3032 3035 3037 3038
3011 3013 3014 3016 3018 3019 3021 3026 3024 3015 3014 3013 3015 3013 3014 3015 3015 3014 3013 3013 3012 3015 3017 3016 3017 3016 3019 3021 3023 3024 3027 3026 3029 3028 3025 3024 3019 3022 3023 3025 3026 3029 3033 3035 3037
3003 3006 3006 3009 3012 3015 3018 3017 3011 3012 3013 3012 3013 3010 3011 3013 3015 3012 3011 3011 3011 3009 3014 3013 3011 3012 3014 3017 3020 3022 3019 3023 3021 3027 3027 3019 3015 3019 3019 3021 3025 3028 3031 3033 3035
2995 2997 3001 3003 3005 3008 3010 3004 3006 3008 3011 3011 3011 3008 3008 3010 3012 3010 3008 3008 3008 3009 3011 3012 3011 3006 3011 3013 3016 3016 3022 3023 3023 3027 3027 3012 3006 3014 3016 3019 3024 3027 3029 3032 3032
2990 2990 2997 2998 3000 3002 2997 2998 3002 3003 3007 3010 3008 3006 3007 3009 3010 3010 3008 3007 3006 3007 3007 3009 3011 3008 3006 3006 3010 3015 3016 3021 3023 3021 3017 3016 3015 3013 3013 3015 3020 3023 3024 3027 3030
2986 2986 2991 2990 2994 2993 2990 2994 3000 3001 3003 3004 3004 3004 3004 3006 3007 3009 3008 3007 3005 3005 3005 3004 3005 3003 3004 3003 3006 3007 3010 3014 3017 3016 3017 3015 3012 3014 3017 3016 3018 3021 3025 3028 3031
2980 2981 2985 2987 2985 2986 2990 2991 2993 2996 2998 3000 3001 3001 3002 3004 3006 3006 3006 3006 3003 3004 3002 3002 3001 3002 3000 3002 3002 3002 3004 3007 3011 3016 3013 3013 3015 3016 3015 3018 3018 3019 3021 3025 3026
2978 2977 2978 2979 2981 2983 2985 2986 2988 2991 2992 2994 2997 2998 2999 3000 3002 3002 3003 3004 3003 3003 3001 3000 2998 2998 2996 2997 2997 2999 3000 3002 3006 3009 3010 3008 3011 3009 3012 3016 3019 3020 3019 3021 3023
2971 2970 2975 2974 2975 2977 2981 2980 2983 2985 2988 2990 2991 2993 2996 2997 2998 2999 3000 3001 3001 3001 2999 2998 2997 2996 2994 2993 2993 2996 2995 2995 2999 3002 3004 3005 3006 3007 3011 3013 3018 3018 3019 3019 3020
2964 2968 2973 2971 2972 2973 2975 2976 2979 2980 2984 2986 2988 2990 2992 2994 2996 2997 2996 2995 2996 2999 2998 2995 2995 2992 2990 2991 2992 2992 2992 2992 2994 2998 3000 3003 3004 3009 3012 3015 3013 3014 3015 3015 3017
2959 2964 2967 2967 2967 2970 2969 2972 2975 2979 2979 2980 2983 2985 2988 2988 2986 2988 2989 2990 2991 2992 2994 2995 2995 2995 2992 2992 2991 2990 2989 2990 2995 2995 2997 3001 3005 3003 3006 3009 3010 3011 3009 3009 3010